• In Hungary
  • List of Countries
  • For 7 days
  • Water Temperature
  • Satellite Maps
  • Weather Map
  • News
  • Weather Widgets
  • user-avatar
    Login

    Hourly Weather Lanaken

    Today, 19 February, Monday

    Time Temperature Precipitation Wind Pressure Humidity
    00:00 -2°C° 0 mm 2 mps 761 mmHg 82%
    01:00 -2°C° 0 mm 2 mps 761 mmHg 81%
    02:00 -2°C° 0 mm 2 mps 760 mmHg 81%
    03:00 -2°C° 0 mm 2 mps 760 mmHg 80%
    04:00 -2°C° 0 mm 2 mps 760 mmHg 78%
    05:00 -1°C° 0 mm 2 mps 760 mmHg 75%
    06:00 -1°C° 0 mm 2 mps 759 mmHg 73%
    07:00 +1°C° 0 mm 2 mps 759 mmHg 69%
    08:00 +1°C° 0 mm 2 mps 759 mmHg 66%
    09:00 +2°C° 0 mm 2 mps 759 mmHg 62%
    10:00 +3°C° 0 mm 2 mps 758 mmHg 58%
    11:00 +4°C° 0 mm 2 mps 758 mmHg 54%
    12:00 +5°C° 0 mm 2 mps 758 mmHg 50%
    13:00 +7°C° 0 mm 1 mps 757 mmHg 51%
    14:00 +7°C° 0 mm 1 mps 757 mmHg 51%
    15:00 +7°C° 0 mm 1 mps 757 mmHg 52%
    16:00 +6°C° 0 mm 1 mps 757 mmHg 56%
    17:00 +5°C° 0 mm 1 mps 756 mmHg 59%
    18:00 +4°C° 0 mm 1 mps 756 mmHg 63%
    19:00 +4°C° 0 mm 1 mps 756 mmHg 65%
    20:00 +4°C° 0 mm 1 mps 756 mmHg 67%
    21:00 +3°C° 0 mm 1 mps 756 mmHg 68%
    22:00 +3°C° 0 mm 1 mps 756 mmHg 70%
    23:00 +3°C° 0 mm 1 mps 756 mmHg 72%

    Tomorrow, 20 February, Tuesday

    Time Temperature Precipitation Wind Pressure Humidity
    00:00 +2°C° 0 mm 1 mps 756 mmHg 74%
    01:00 +2°C° 0 mm 1 mps 756 mmHg 75%
    02:00 +1°C° 0 mm 1 mps 756 mmHg 77%
    03:00 +1°C° 0 mm 1 mps 756 mmHg 78%
    04:00 +1°C° 0 mm 1 mps 756 mmHg 79%
    05:00 0°C° 0 mm 1 mps 756 mmHg 79%
    06:00 0°C° 0 mm 1 mps 756 mmHg 79%
    07:00 +1°C° 0 mm 1 mps 757 mmHg 74%
    08:00 +3°C° 0 mm 1 mps 757 mmHg 69%
    09:00 +4°C° 0 mm 1 mps 757 mmHg 64%
    10:00 +4°C° 0 mm 2 mps 757 mmHg 60%
    11:00 +5°C° 0 mm 2 mps 757 mmHg 55%
    12:00 +6°C° 0 mm 2 mps 757 mmHg 51%
    13:00 +6°C° 0 mm 2 mps 757 mmHg 51%
    14:00 +5°C° 0 mm 3 mps 757 mmHg 51%
    15:00 +5°C° 0 mm 3 mps 757 mmHg 52%
    16:00 +4°C° 0 mm 3 mps 758 mmHg 57%
    17:00 +2°C° 0 mm 3 mps 758 mmHg 62%
    18:00 +1°C° 0 mm 3 mps 758 mmHg 68%
    19:00 0°C° 0 mm 3 mps 759 mmHg 70%
    20:00 0°C° 0 mm 3 mps 759 mmHg 71%
    21:00 -1°C° 0 mm 3 mps 760 mmHg 73%
    22:00 -1°C° 0 mm 3 mps 760 mmHg 75%
    23:00 -1°C° 0 mm 3 mps 761 mmHg 77%

    Day after tomorrow, 21 February, Wednesday

    Time Temperature Precipitation Wind Pressure Humidity
    00:00 -2°C° 0 mm 3 mps 761 mmHg 79%
    01:00 -2°C° 0 mm 2 mps 761 mmHg 80%
    02:00 -2°C° 0 mm 2 mps 761 mmHg 81%
    03:00 -2°C° 0 mm 2 mps 761 mmHg 82%
    04:00 -3°C° 0 mm 2 mps 762 mmHg 82%
    05:00 -3°C° 0 mm 2 mps 762 mmHg 83%
    06:00 -3°C° 0 mm 2 mps 762 mmHg 83%
    07:00 -2°C° 0 mm 2 mps 762 mmHg 78%
    08:00 -1°C° 0 mm 3 mps 762 mmHg 72%
    09:00 0°C° 0 mm 3 mps 763 mmHg 66%
    10:00 +1°C° 0 mm 3 mps 762 mmHg 60%
    11:00 +3°C° 0 mm 3 mps 762 mmHg 55%
    12:00 +4°C° 0 mm 3 mps 762 mmHg 49%
    13:00 +4°C° 0 mm 4 mps 761 mmHg 49%
    14:00 +4°C° 0 mm 4 mps 761 mmHg 49%
    15:00 +4°C° 0 mm 4 mps 761 mmHg 50%
    16:00 +1°C° 0 mm 4 mps 761 mmHg 55%
    17:00 +1°C° 0 mm 3 mps 761 mmHg 61%
    18:00 -1°C° 0 mm 3 mps 761 mmHg 67%
    19:00 -1°C° 0 mm 3 mps 761 mmHg 68%
    20:00 -1°C° 0 mm 3 mps 761 mmHg 70%
    21:00 -2°C° 0 mm 3 mps 761 mmHg 71%
    22:00 -2°C° 0 mm 3 mps 761 mmHg 72%
    23:00 -2°C° 0 mm 3 mps 761 mmHg 73%

    22 February, Thursday

    Time Temperature Precipitation Wind Pressure Humidity
    00:00 -2°C° 0 mm 3 mps 761 mmHg 74%
    01:00 -2°C° 0 mm 3 mps 760 mmHg 75%
    02:00 -2°C° 0 mm 3 mps 760 mmHg 75%
    03:00 -4°C° 0 mm 3 mps 760 mmHg 75%
    04:00 -4°C° 0 mm 3 mps 760 mmHg 76%
    05:00 -4°C° 0 mm 4 mps 760 mmHg 76%
    06:00 -4°C° 0 mm 4 mps 760 mmHg 76%
    07:00 -3°C° 0 mm 4 mps 760 mmHg 71%
    08:00 -2°C° 0 mm 5 mps 760 mmHg 65%
    09:00 -1°C° 0 mm 5 mps 760 mmHg 60%
    10:00 -1°C° 0 mm 6 mps 760 mmHg 54%
    11:00 +1°C° 0 mm 6 mps 760 mmHg 47%
    12:00 +2°C° 0 mm 7 mps 760 mmHg 40%
    13:00 +2°C° 0 mm 7 mps 759 mmHg 41%
    14:00 +2°C° 0 mm 7 mps 759 mmHg 41%
    15:00 +2°C° 0 mm 7 mps 759 mmHg 42%
    16:00 +1°C° 0 mm 6 mps 759 mmHg 47%
    17:00 -1°C° 0 mm 6 mps 759 mmHg 52%
    18:00 -2°C° 0 mm 5 mps 759 mmHg 57%
    19:00 -2°C° 0 mm 5 mps 760 mmHg 60%
    20:00 -2°C° 0 mm 5 mps 760 mmHg 62%
    21:00 -4°C° 0 mm 5 mps 760 mmHg 65%
    22:00 -4°C° 0 mm 5 mps 760 mmHg 67%
    23:00 -4°C° 0 mm 5 mps 760 mmHg 69%

    23 February, Friday

    Time Temperature Precipitation Wind Pressure Humidity
    00:00 -4°C° 0 mm 5 mps 760 mmHg 71%
    01:00 -4°C° 0 mm 5 mps 760 mmHg 72%
    02:00 -5°C° 0 mm 5 mps 759 mmHg 72%
    03:00 -5°C° 0 mm 5 mps 759 mmHg 72%
    04:00 -5°C° 0 mm 5 mps 759 mmHg 71%
    05:00 -5°C° 0 mm 5 mps 759 mmHg 70%
    06:00 -5°C° 0 mm 5 mps 759 mmHg 69%
    07:00 -5°C° 0 mm 5 mps 760 mmHg 62%
    08:00 -4°C° 0 mm 6 mps 760 mmHg 55%
    09:00 -3°C° 0 mm 6 mps 760 mmHg 48%
    10:00 -2°C° 0 mm 6 mps 760 mmHg 44%
    11:00 -1°C° 0 mm 6 mps 760 mmHg 40%
    12:00 0°C° 0 mm 7 mps 760 mmHg 36%
    13:00 0°C° 0 mm 7 mps 760 mmHg 36%
    14:00 0°C° 0 mm 7 mps 760 mmHg 36%
    15:00 0°C° 0 mm 7 mps 759 mmHg 36%
    16:00 -1°C° 0 mm 6 mps 760 mmHg 40%
    17:00 -2°C° 0 mm 6 mps 760 mmHg 45%
    18:00 -2°C° 0 mm 5 mps 760 mmHg 49%
    19:00 -2°C° 0 mm 5 mps 761 mmHg 50%
    20:00 -4°C° 0 mm 5 mps 761 mmHg 52%
    21:00 -4°C° 0 mm 5 mps 762 mmHg 54%
    22:00 -5°C° 0 mm 5 mps 762 mmHg 52%
    23:00 -5°C° 0 mm 5 mps 762 mmHg 51%

    24 February, Saturday

    Time Temperature Precipitation Wind Pressure Humidity
    00:00 -5°C° 0 mm 5 mps 762 mmHg 49%
    01:00 -5°C° 0 mm 5 mps 763 mmHg 47%
    02:00 -5°C° 0 mm 5 mps 763 mmHg 45%
    03:00 -6°C° 0 mm 5 mps 763 mmHg 43%
    04:00 -6°C° 0 mm 5 mps 763 mmHg 41%
    05:00 -6°C° 0 mm 5 mps 763 mmHg 39%
    06:00 -6°C° 0 mm 5 mps 764 mmHg 37%
    07:00 -5°C° 0 mm 6 mps 764 mmHg 35%
    08:00 -4°C° 0 mm 6 mps 764 mmHg 32%
    09:00 -3°C° 0 mm 7 mps 765 mmHg 30%
    10:00 -2°C° 0 mm 7 mps 765 mmHg 29%
    11:00 -1°C° 0 mm 7 mps 765 mmHg 29%
    12:00 0°C° 0 mm 7 mps 764 mmHg 28%
    13:00 0°C° 0 mm 7 mps 764 mmHg 30%
    14:00 0°C° 0 mm 7 mps 764 mmHg 31%
    15:00 0°C° 0 mm 7 mps 764 mmHg 32%
    16:00 -1°C° 0 mm 6 mps 764 mmHg 35%
    17:00 -2°C° 0 mm 6 mps 765 mmHg 39%
    18:00 -2°C° 0 mm 5 mps 765 mmHg 42%
    19:00 -4°C° 0 mm 5 mps 765 mmHg 45%
    20:00 -4°C° 0 mm 5 mps 766 mmHg 47%
    21:00 -5°C° 0 mm 5 mps 766 mmHg 50%
    22:00 -5°C° 0 mm 5 mps 766 mmHg 52%
    23:00 -5°C° 0 mm 5 mps 766 mmHg 55%
    Show more